This is the latest recevied weather packets stored in our database for station/object WB3IGR. If no packets are shown the sender has not sent any weather packets the latest 10 day(s).
| Time | Temp. | Humidity | Pressure | Rain* | Wind** | Luminosity | Snow |
|---|---|---|---|---|---|---|---|
| 1777555898 | 10.56° C | 99% | 1009.7 hPa | 0 mm | - | 363 W/m² | - |
| 1777555593 | 10.56° C | 99% | 1009.8 hPa | 0 mm | - | 285 W/m² | - |
| 1777555291 | 10.56° C | 99% | 1010 hPa | 0 mm | - | 423 W/m² | - |
| 1777554987 | 11.11° C | 99% | 1009.8 hPa | 0 mm | - | 268 W/m² | - |
| 1777554684 | 11.11° C | 99% | 1009.8 hPa | 0 mm | - | 263 W/m² | - |
| 1777554381 | 10.56° C | 99% | 1009.9 hPa | 0 mm | - | 249 W/m² | - |
| 1777554078 | 10.56° C | 99% | 1009.8 hPa | 0 mm | - | 169 W/m² | - |
| 1777553775 | 10° C | 99% | 1009.9 hPa | 0 mm | - | 122 W/m² | - |
| 1777553471 | 10° C | 99% | 1010.1 hPa | 0 mm | - | 133 W/m² | - |
| 1777553167 | 10° C | 99% | 1010.1 hPa | 0 mm | - | 95 W/m² | - |
| 1777552862 | 10° C | 99% | 1010.1 hPa | 0 mm | - | 75 W/m² | - |
| 1777552558 | 9.44° C | 99% | 1009.9 hPa | 0 mm | - | 81 W/m² | - |
| 1777552254 | 9.44° C | 99% | 1009.9 hPa | 0 mm | - | 98 W/m² | - |
| 1777551951 | 9.44° C | 99% | 1009.8 hPa | 0 mm | - | 50 W/m² | - |
| 1777551649 | 9.44° C | 99% | 1009.9 hPa | 0 mm | - | 39 W/m² | - |
| 1777551346 | 9.44° C | 99% | 1009.9 hPa | 0 mm | - | 36 W/m² | - |
| 1777551042 | 9.44° C | 99% | 1009.9 hPa | 0 mm | - | 30 W/m² | - |
| 1777550739 | 9.44° C | 99% | 1009.9 hPa | 0 mm | - | 46 W/m² | - |
| 1777550436 | 9.44° C | 99% | 1009.7 hPa | 0 mm | - | 36 W/m² | - |
| 1777550132 | 8.89° C | 99% | 1009.7 hPa | 0 mm | - | 23 W/m² | - |
| 1777549828 | 8.89° C | 99% | 1009.6 hPa | 0 mm | - | 32 W/m² | - |
| 1777549525 | 8.89° C | 99% | 1009.6 hPa | 0 mm | - | 32 W/m² | - |
| 1777549221 | 8.89° C | 99% | 1009.6 hPa | 0 mm | - | 32 W/m² | - |
| 1777548917 | 8.89° C | 99% | 1009.6 hPa | 0 mm | - | 15 W/m² | - |
| 1777548615 | 8.89° C | 99% | 1009.7 hPa | 0 mm | - | 12 W/m² | - |
* Rain latest hour (hover to see other rain measurements)
** Current wind speed in m/s (hover to see current wind gust speed)